QPF
0.00 0.00 0.00 0.00 0.00 0.00 0.00 0.00 0.00 0.00 0.00 0.00 0.00 0.00 0.00 0.00 0.00 0.00 0.00 0.02 0.06 0.05 0.01 0.00 0.00 0.00 0.00 0.00 0.00 0.00 0.00 0.00 0.02 0.06 0.01 0.00 0.00 0.00 0.00 0.00 0.00 0.00 0.00 0.00 0.00 0.00 0.00
0.00 0.00 0.00 0.00 0.00 0.00 0.00 0.00 0.00 0.00 0.00 0.00 0.00 0.00 0.00 0.01 0.01 0.00 0.00 0.01 0.05 0.05 0.01 0.00 0.00 0.00 0.00 0.00 0.00 0.00 0.00 0.00 0.00 0.04 0.03 0.00 0.00 0.00 0.00 0.00 0.00 0.00 0.00 0.00 0.00 0.00 0.00
0.00 0.01 0.01 0.00 0.00 0.01 0.01 0.01 0.00 0.01 0.00 0.00 0.00 0.00 0.00 0.00 0.01 0.01 0.00 0.00 0.02 0.04 0.03 0.00 0.00 0.00 0.00 0.00 0.00 0.00 0.00 0.00 0.00 0.01 0.06 0.01 0.00 0.00 0.00 0.00 0.00 0.00 0.00 0.00 0.00 0.00 0.00
0.01 0.00 0.00 0.00 0.01 0.02 0.02 0.01 0.02 0.02 0.00 0.00 0.00 0.00 0.00 0.00 0.01 0.03 0.01 0.00 0.01 0.04 0.06 0.02 0.00 0.00 0.00 0.00 0.00 0.00 0.00 0.00 0.00 0.01 0.07 0.06 0.00 0.00 0.00 0.00 0.00 0.00 0.00 0.00 0.00 0.00 0.00
0.00 0.00 0.00 0.01 0.02 0.01 0.02 0.02 0.02 0.02 0.02 0.02 0.01 0.00 0.01 0.02 0.04 0.03 0.01 0.00 0.00 0.02 0.07 0.06 0.01 0.00 0.00 0.00 0.00 0.00 0.00 0.00 0.00 0.07 0.10 0.03 0.00 0.00 0.00 0.00 0.00 0.00 0.00 0.00 0.00 0.00 0.00
0.01 0.00 0.01 0.01 0.01 0.02 0.03 0.03 0.02 0.02 0.02 0.04 0.03 0.02 0.05 0.05 0.06 0.04 0.01 0.00 0.00 0.02 0.07 0.04 0.01 0.00 0.00 0.00 0.00 0.00 0.00 0.00 0.00 0.02 0.06 0.01 0.00 0.00 0.00 0.00 0.00 0.00 0.00 0.00 0.00 0.00 0.00
0.01 0.00 0.00 0.00 0.01 0.02 0.02 0.02 0.03 0.03 0.03 0.05 0.03 0.01 0.02 0.03 0.03 0.01 0.01 0.00 0.01 0.03 0.04 0.01 0.00 0.00 0.00 0.00 0.00 0.00 0.00 0.00 0.00 0.01 0.00 0.00 0.00 0.00 0.00 0.00 0.00 0.00 0.00 0.00 0.00 0.00 0.00
0.00 0.00 0.00 0.01 0.01 0.01 0.02 0.03 0.04 0.04 0.04 0.03 0.03 0.01 0.03 0.03 0.02 0.02 0.02 0.01 0.00 0.02 0.02 0.01 0.00 0.00 0.00 0.00 0.00 0.00 0.00 0.00 0.00 0.00 0.00 0.00 0.00 0.00 0.00 0.00 0.00 0.00 0.00 0.00 0.00 0.00 0.00
0.00 0.00 0.01 0.02 0.01 0.02 0.03 0.04 0.04 0.03 0.04 0.03 0.02 0.01 0.04 0.03 0.03 0.02 0.02 0.00 0.00 0.01 0.02 0.01 0.00 0.00 0.00 0.00 0.00 0.00 0.00 0.00 0.00 0.00 0.00 0.00 0.00 0.00 0.00 0.00 0.00 0.00 0.00 0.00 0.00 0.00 0.00
0.00 0.01 0.02 0.02 0.02 0.02 0.03 0.03 0.02 0.03 0.02 0.02 0.00 0.01 0.03 0.05 0.05 0.04 0.02 0.00 0.00 0.02 0.01 0.01 0.01 0.00 0.00 0.00 0.00 0.00 0.00 0.00 0.00 0.00 0.00 0.00 0.00 0.00 0.00 0.00 0.00 0.00 0.00 0.00 0.00 0.00 0.00
0.00 0.01 0.02 0.02 0.02 0.02 0.02 0.02 0.03 0.03 0.01 0.00 0.00 0.01 0.01 0.06 0.04 0.03 0.07 0.01 0.01 0.02 0.01 0.00 0.00 0.00 0.00 0.00 0.00 0.00 0.00 0.00 0.00 0.00 0.00 0.00 0.00 0.00 0.00 0.00 0.00 0.00 0.00 0.00 0.00 0.00 0.00
0.00 0.01 0.01 0.02 0.01 0.01 0.02 0.02 0.03 0.01 0.00 0.00 0.00 0.00 0.01 0.01 0.03 0.06 0.13 0.02 0.01 0.00 0.01 0.00 0.00 0.00 0.01 0.00 0.00 0.00 0.00 0.00 0.00 0.00 0.00 0.00 0.00 0.00 0.00 0.00 0.00 0.00 0.00 0.00 0.00 0.00 0.00
0.00 0.01 0.01 0.02 0.01 0.01 0.02 0.02 0.01 0.02 0.00 0.00 0.00 0.00 0.00 0.01 0.05 0.09 0.05 0.00 0.00 0.01 0.00 0.01 0.00 0.00 0.00 0.00 0.00 0.00 0.00 0.00 0.00 0.00 0.00 0.00 0.00 0.00 0.00 0.00 0.00 0.00 0.00 0.00 0.00 0.00 0.00
0.00 0.01 0.02 0.02 0.01 0.02 0.01 0.02 0.01 0.00 0.00 0.00 0.01 0.00 0.02 0.05 0.11 0.06 0.02 0.00 0.01 0.01 0.00 0.00 0.00 0.01 0.00 0.00 0.00 0.00 0.00 0.00 0.00 0.00 0.00 0.00 0.00 0.00 0.00 0.00 0.00 0.00 0.00 0.00 0.00 0.00 0.00
0.00 0.02 0.02 0.01 0.01 0.01 0.01 0.02 0.00 0.00 0.00 0.01 0.01 0.00 0.05 0.13 0.09 0.01 0.00 0.00 0.01 0.00 0.00 0.00 0.01 0.01 0.02 0.00 0.00 0.00 0.00 0.00 0.00 0.00 0.00 0.00 0.00 0.00 0.00 0.00 0.00 0.00 0.00 0.00 0.00 0.00 0.00
0.00 0.02 0.02 0.01 0.00 0.01 0.01 0.01 0.00 0.00 0.02 0.03 0.01 0.00 0.05 0.10 0.02 0.00 0.00 0.00 0.00 0.00 0.00 0.00 0.00 0.00 0.01 0.00 0.00 0.00 0.00 0.00 0.00 0.00 0.00 0.00 0.00 0.00 0.00 0.00 0.00 0.00 0.00 0.00 0.00 0.00 0.00
0.00 0.01 0.01 0.01 0.00 0.00 0.00 0.01 0.00 0.01 0.02 0.02 0.00 0.01 0.06 0.05 0.01 0.00 0.00 0.00 0.00 0.00 0.00 0.00 0.00 0.00 0.00 0.00 0.00 0.00 0.00 0.00 0.00 0.00 0.00 0.00 0.00 0.00 0.00 0.00 0.00 0.00 0.00 0.00 0.00 0.00 0.00
0.00 0.01 0.01 0.01 0.00 0.00 0.00 0.00 0.00 0.00 0.02 0.01 0.00 0.01 0.04 0.03 0.00 0.00 0.01 0.00 0.00 0.00 0.00 0.00 0.00 0.00 0.00 0.00 0.00 0.00 0.00 0.00 0.00 0.00 0.00 0.00 0.00 0.00 0.00 0.00 0.00 0.00 0.00 0.00 0.00 0.00 0.00
0.01 0.01 0.00 0.01 0.00 0.00 0.00 0.00 0.00 0.00 0.01 0.01 0.00 0.00 0.00 0.01 0.01 0.00 0.00 0.01 0.00 0.00 0.00 0.00 0.00 0.00 0.00 0.00 0.00 0.00 0.00 0.00 0.00 0.00 0.00 0.00 0.00 0.00 0.00 0.00 0.00 0.00 0.00 0.00 0.00 0.00 0.00
0.00 0.00 0.01 0.01 0.01 0.00 0.00 0.00 0.00 0.00 0.00 0.00 0.00 0.00 0.00 0.01 0.01 0.00 0.01 0.01 0.00 0.00 0.00 0.00 0.00 0.00 0.00 0.00 0.00 0.00 0.00 0.00 0.00 0.00 0.00 0.00 0.00 0.00 0.00 0.00 0.00 0.00 0.00 0.00 0.00 0.00 0.00
0.00 0.00 0.00 0.00 0.01 0.00 0.00 0.00 0.00 0.00 0.00 0.00 0.00 0.00 0.00 0.01 0.01 0.01 0.00 0.00 0.00 0.00 0.00 0.00 0.00 0.00 0.00 0.00 0.00 0.00 0.00 0.00 0.00 0.00 0.00 0.00 0.00 0.00 0.00 0.00 0.00 0.00 0.00 0.00 0.00 0.00 0.00
0.00 0.00 0.00 0.00 0.01 0.00 0.00 0.00 0.00 0.00 0.00 0.00 0.00 0.00 0.00 0.00 0.00 0.00 0.00 0.00 0.00 0.00 0.00 0.00 0.00 0.00 0.00 0.00 0.00 0.00 0.00 0.00 0.00 0.00 0.00 0.00 0.00 0.00 0.00 0.00 0.00 0.00 0.00 0.00 0.00 0.00 0.00
0.00 0.00 0.00 0.00 0.00 0.00 0.00 0.00 0.00 0.00 0.00 0.00 0.00 0.00 0.00 0.00 0.00 0.00 0.00 0.00 0.00 0.00 0.00 0.00 0.00 0.00 0.00 0.00 0.00 0.00 0.00 0.00 0.00 0.00 0.00 0.00 0.00 0.00 0.00 0.00 0.00 0.00 0.00 0.00 0.00 0.00 0.00
0.00 0.00 0.00 0.00 0.00 0.00 0.00 0.00 0.00 0.00 0.00 0.01 0.00 0.00 0.00 0.00 0.00 0.00 0.00 0.00 0.00 0.00 0.00 0.00 0.00 0.00 0.00 0.00 0.00 0.00 0.00 0.00 0.00 0.00 0.00 0.00 0.01 0.01 0.00 0.00 0.00 0.00 0.00 0.00 0.00 0.00 0.00
0.00 0.00 0.00 0.00 0.00 0.00 0.00 0.00 0.00 0.00 0.00 0.00 0.00 0.00 0.00 0.00 0.00 0.00 0.00 0.00 0.00 0.00 0.00 0.00 0.00 0.00 0.00 0.00 0.00 0.00 0.00 0.00 0.00 0.00 0.00 0.00 0.01 0.01 0.00 0.00 0.00 0.00 0.00 0.00 0.00 0.00 0.00
0.00 0.00 0.00 0.00 0.00 0.00 0.00 0.00 0.00 0.00 0.00 0.00 0.00 0.00 0.00 0.00 0.00 0.00 0.00 0.00 0.00 0.00 0.00 0.00 0.00 0.00 0.00 0.00 0.00 0.00 0.00 0.00 0.00 0.00 0.00 0.00 0.00 0.01 0.00 0.00 0.00 0.00 0.00 0.00 0.00 0.00 0.00
0.00 0.00 0.00 0.00 0.00 0.00 0.00 0.00 0.00 0.00 0.00 0.00 0.00 0.00 0.00 0.00 0.00 0.00 0.00 0.00 0.00 0.00 0.00 0.00 0.00 0.00 0.00 0.01 0.00 0.00 0.00 0.00 0.00 0.00 0.00 0.00 0.00 0.00 0.00 0.00 0.00 0.00 0.00 0.00 0.00 0.00 0.00
0.00 0.00 0.00 0.00 0.00 0.00 0.00 0.00 0.00 0.00 0.00 0.00 0.00 0.00 0.00 0.00 0.00 0.00 0.00 0.00 0.00 0.00 0.01 0.00 0.00 0.00 0.00 0.01 0.00 0.00 0.00 0.00 0.00 0.00 0.00 0.00 0.00 0.00 0.00 0.00 0.00 0.00 0.00 0.00 0.00 0.00 0.00
0.01 0.00 0.00 0.00 0.00 0.00 0.00 0.00 0.00 0.00 0.00 0.00 0.00 0.00 0.00 0.00 0.00 0.00 0.00 0.00 0.00 0.00 0.01 0.00 0.01 0.00 0.00 0.01 0.01 0.01 0.00 0.01 0.00 0.00 0.00 0.00 0.00 0.00 0.00 0.00 0.00 0.00 0.00 0.00 0.00 0.00 0.00
MSLP
1019.87 1019.40 1018.91 1018.42 1017.83 1017.24 1016.80 1016.45 1016.15 1015.81 1015.39 1014.93 1014.46 1014.05 1013.73 1013.32 1013.09 1012.58 1012.09 1011.81 1011.22 1010.84 1010.86 1011.13 1011.26 1011.57 1011.83 1011.03 1009.27 1008.95 1008.86 1009.37 1009.65 1010.10 1010.00 1009.67 1009.66 1009.71 1009.64 1009.29 1009.00 1008.70 1008.80 1008.14 1007.71 1007.41 1007.69
1019.79 1019.29 1018.88 1018.43 1017.92 1017.33 1016.73 1016.43 1015.90 1015.45 1015.12 1014.63 1014.12 1013.66 1013.35 1013.10 1012.74 1012.33 1011.87 1011.52 1011.17 1010.63 1010.21 1010.63 1010.85 1011.34 1011.30 1009.78 1008.12 1008.56 1008.68 1009.01 1009.17 1009.47 1009.65 1009.53 1009.43 1009.45 1009.39 1009.08 1008.78 1008.72 1008.70 1008.51 1008.20 1007.75 1008.14
1019.61 1019.11 1018.61 1018.42 1017.75 1017.03 1016.54 1016.04 1015.61 1015.25 1014.80 1014.28 1013.83 1013.43 1013.02 1012.68 1012.40 1012.07 1011.56 1011.11 1010.97 1010.42 1009.84 1010.13 1010.54 1010.98 1010.31 1008.73 1008.27 1008.43 1008.74 1008.72 1008.71 1008.81 1009.33 1009.39 1009.54 1009.78 1009.37 1009.26 1009.02 1009.16 1009.53 1009.15 1008.71 1008.18 1008.10
1019.39 1018.98 1018.47 1017.87 1017.42 1016.87 1016.15 1015.87 1015.27 1014.83 1014.40 1014.05 1013.59 1013.11 1012.65 1012.32 1012.10 1011.77 1011.42 1010.96 1010.44 1010.31 1009.74 1009.63 1010.29 1010.53 1009.34 1008.14 1008.39 1008.75 1008.61 1008.54 1008.68 1008.72 1009.06 1009.50 1009.85 1010.16 1010.10 1010.29 1009.96 1010.09 1009.98 1009.47 1007.86 1007.44 1007.58
1019.11 1018.66 1018.13 1017.56 1017.21 1016.80 1016.11 1015.59 1015.09 1014.48 1013.97 1013.45 1013.25 1012.91 1012.39 1012.04 1011.79 1011.48 1011.17 1010.71 1010.34 1009.86 1009.65 1009.60 1010.35 1010.09 1008.77 1008.49 1008.34 1008.30 1008.39 1008.20 1008.59 1008.90 1009.39 1009.92 1010.08 1010.47 1010.81 1010.67 1010.65 1010.09 1009.81 1008.88 1007.96 1007.13 1007.23
1018.89 1018.45 1018.00 1017.48 1017.06 1016.38 1015.85 1015.37 1014.69 1014.23 1013.76 1013.22 1012.89 1012.50 1012.01 1011.73 1011.41 1011.27 1010.96 1010.33 1009.42 1009.24 1008.97 1009.66 1009.59 1010.02 1008.31 1007.43 1007.51 1007.87 1008.26 1008.09 1008.59 1009.37 1010.31 1010.69 1010.77 1011.03 1011.01 1010.82 1010.22 1009.79 1009.51 1008.94 1008.15 1007.58 1007.60
1018.93 1018.45 1018.11 1017.47 1016.82 1016.05 1015.63 1015.08 1014.46 1013.91 1013.35 1012.86 1012.52 1012.16 1011.53 1011.50 1011.26 1010.93 1010.79 1010.32 1009.47 1009.35 1008.20 1007.98 1008.05 1007.11 1006.26 1006.82 1007.49 1007.84 1008.18 1008.37 1008.69 1009.44 1010.06 1010.40 1010.75 1010.49 1010.26 1010.26 1010.06 1009.61 1009.45 1009.07 1008.41 1007.89 1007.93
1019.11 1018.43 1017.68 1017.15 1016.67 1016.09 1015.45 1014.85 1014.22 1013.60 1013.07 1012.58 1012.25 1011.77 1011.13 1011.16 1010.79 1010.74 1010.72 1010.38 1010.01 1010.42 1008.43 1007.85 1007.58 1006.90 1006.96 1006.97 1007.37 1008.06 1007.97 1008.60 1009.00 1009.60 1009.98 1010.89 1010.39 1010.03 1010.01 1009.80 1009.90 1009.74 1009.87 1009.79 1009.33 1008.99 1008.97
1019.05 1018.13 1017.47 1016.97 1016.41 1015.85 1015.21 1014.58 1013.93 1013.35 1012.89 1012.38 1011.85 1011.20 1010.80 1010.56 1010.08 1009.88 1009.83 1009.54 1009.90 1010.76 1009.50 1008.00 1007.20 1006.84 1007.06 1007.06 1007.00 1007.70 1008.12 1008.40 1009.11 1009.81 1010.23 1010.34 1010.08 1009.99 1010.01 1009.99 1010.29 1010.43 1010.47 1010.48 1010.43 1010.17 1009.91
1018.88 1018.20 1017.49 1016.86 1016.17 1015.62 1014.88 1014.32 1013.74 1013.12 1012.44 1011.85 1011.32 1010.88 1010.47 1010.03 1009.61 1009.04 1008.34 1007.96 1009.73 1010.69 1009.85 1007.64 1006.68 1006.41 1007.01 1006.80 1007.34 1007.89 1008.13 1008.56 1009.29 1009.85 1010.45 1010.60 1010.14 1010.13 1010.14 1010.31 1010.55 1010.71 1010.63 1010.83 1011.17 1011.35 1011.28
1018.52 1017.94 1017.50 1016.79 1016.14 1015.43 1014.75 1014.12 1013.46 1012.81 1012.15 1011.50 1010.97 1010.47 1009.95 1009.74 1009.34 1008.75 1008.16 1008.78 1009.88 1011.20 1008.96 1007.11 1006.62 1006.06 1006.82 1006.89 1007.34 1008.27 1008.45 1008.72 1008.99 1009.53 1010.40 1010.23 1010.00 1010.27 1010.49 1010.41 1010.66 1011.15 1011.41 1011.89 1012.32 1012.56 1012.44
1018.42 1017.81 1017.33 1016.67 1015.98 1015.18 1014.57 1013.89 1013.29 1012.48 1011.79 1011.09 1010.57 1009.98 1009.23 1008.57 1008.25 1008.06 1008.32 1008.95 1009.67 1011.14 1007.55 1006.72 1006.56 1006.33 1007.12 1007.32 1007.52 1008.37 1008.85 1009.18 1009.18 1009.70 1010.10 1010.16 1010.35 1010.42 1010.47 1010.90 1011.22 1011.88 1012.11 1012.62 1013.14 1013.51 1012.86
1018.50 1017.71 1017.13 1016.46 1015.79 1015.09 1014.35 1013.54 1012.99 1012.05 1011.35 1010.81 1010.23 1009.34 1008.45 1007.80 1007.59 1007.71 1008.26 1008.59 1010.05 1009.24 1007.13 1006.94 1006.33 1006.86 1007.30 1007.69 1008.29 1008.80 1009.22 1009.68 1009.58 1010.48 1010.64 1010.66 1010.59 1010.66 1010.94 1011.31 1011.71 1012.20 1012.93 1013.39 1014.00 1013.83 1012.08
1018.52 1017.75 1017.09 1016.33 1015.50 1014.98 1014.10 1013.51 1012.66 1011.87 1011.09 1010.43 1009.64 1008.55 1007.71 1007.45 1007.58 1008.05 1008.48 1008.64 1008.37 1006.81 1006.28 1006.23 1006.56 1007.49 1007.66 1008.00 1008.73 1009.21 1009.70 1009.95 1009.98 1010.00 1010.05 1010.50 1010.27 1010.43 1011.10 1011.22 1011.63 1012.30 1013.05 1013.61 1013.64 1012.98 1011.29
1018.68 1017.87 1017.05 1016.21 1015.44 1014.89 1014.03 1013.24 1012.48 1011.62 1010.78 1009.97 1009.18 1008.45 1007.91 1007.75 1007.96 1008.25 1008.78 1007.96 1007.02 1005.57 1005.45 1005.69 1006.95 1007.38 1007.81 1008.07 1008.34 1009.15 1009.61 1009.80 1009.78 1009.90 1009.83 1009.97 1010.34 1009.96 1010.85 1011.16 1011.61 1012.43 1013.19 1013.62 1013.84 1013.02 1011.75
1018.53 1017.81 1016.94 1016.31 1015.52 1014.89 1014.06 1013.19 1012.37 1011.42 1010.39 1009.26 1009.10 1008.92 1008.49 1008.28 1008.30 1008.55 1008.88 1007.68 1006.50 1004.79 1004.89 1005.60 1005.62 1006.18 1006.96 1007.72 1008.00 1008.44 1009.06 1008.87 1009.05 1009.30 1009.41 1009.92 1010.39 1010.73 1010.96 1011.38 1011.73 1012.24 1012.90 1013.90 1014.25 1013.86 1011.59
1018.58 1017.79 1016.94 1016.29 1015.59 1014.89 1014.17 1013.27 1012.27 1011.20 1010.05 1009.11 1009.32 1009.18 1009.20 1008.70 1008.77 1008.73 1008.21 1007.34 1006.00 1005.16 1004.95 1004.70 1005.01 1005.46 1006.11 1007.23 1007.60 1008.14 1008.49 1007.95 1008.43 1008.74 1009.42 1010.03 1010.62 1011.96 1012.04 1011.70 1011.63 1012.51 1012.94 1013.28 1013.50 1013.24 1011.75
1018.64 1017.64 1016.88 1016.32 1015.77 1015.03 1014.27 1013.38 1012.38 1011.33 1010.18 1009.57 1009.67 1009.74 1009.62 1009.08 1009.28 1008.79 1007.91 1007.53 1006.24 1005.33 1004.67 1004.16 1004.51 1005.03 1005.75 1006.76 1007.30 1007.75 1007.62 1007.83 1007.98 1008.38 1009.18 1010.22 1011.00 1011.86 1011.69 1011.19 1011.35 1011.63 1012.19 1012.87 1013.25 1012.39 1011.31
1018.61 1017.75 1016.97 1016.30 1015.81 1015.20 1014.47 1013.60 1012.78 1011.65 1010.54 1010.18 1010.00 1010.39 1010.00 1009.86 1009.23 1008.98 1008.27 1007.40 1006.60 1005.36 1004.81 1004.48 1004.43 1004.73 1005.60 1006.34 1007.08 1007.05 1007.39 1008.19 1008.15 1008.51 1009.34 1010.35 1011.48 1012.12 1011.66 1011.49 1011.30 1011.37 1011.64 1011.88 1012.22 1012.05 1010.52
1018.68 1017.83 1016.99 1016.46 1015.93 1015.32 1014.60 1013.90 1012.91 1012.07 1010.71 1010.29 1010.18 1010.28 1009.78 1009.24 1008.54 1008.55 1007.95 1007.51 1006.62 1005.86 1005.33 1004.86 1004.89 1004.92 1005.67 1006.12 1006.11 1006.94 1007.87 1008.55 1008.66 1008.97 1009.55 1010.25 1011.21 1011.89 1011.85 1011.42 1011.62 1011.82 1011.37 1011.32 1011.61 1011.22 1009.64
1018.66 1017.91 1017.15 1016.56 1016.14 1015.66 1014.83 1014.19 1013.10 1012.31 1011.27 1010.62 1010.87 1010.78 1010.67 1009.51 1008.37 1007.84 1007.83 1007.80 1006.70 1006.12 1005.87 1005.50 1005.48 1005.31 1005.62 1006.12 1006.74 1007.16 1007.95 1008.85 1009.33 1009.61 1010.07 1010.73 1011.66 1011.97 1011.73 1011.29 1011.11 1010.67 1010.39 1010.32 1010.52 1009.89 1009.35
1018.70 1018.10 1017.33 1016.86 1016.24 1015.80 1015.23 1014.53 1013.79 1012.78 1011.65 1011.26 1011.77 1011.77 1010.81 1009.13 1008.07 1007.67 1007.80 1007.80 1006.81 1006.36 1005.90 1005.78 1005.82 1006.13 1006.18 1006.53 1007.10 1007.29 1007.82 1008.39 1008.82 1009.86 1010.47 1011.10 1011.91 1012.04 1011.30 1010.24 1009.94 1009.53 1008.94 1008.67 1008.66 1008.31 1007.72
1018.67 1018.17 1017.63 1017.17 1016.66 1016.09 1015.50 1014.78 1014.31 1013.37 1012.71 1012.33 1012.44 1011.97 1011.39 1009.44 1008.25 1007.39 1007.01 1006.73 1006.64 1006.56 1006.86 1006.46 1006.46 1006.64 1007.05 1007.65 1007.75 1007.79 1008.05 1008.47 1008.80 1009.37 1010.23 1011.05 1011.93 1012.14 1011.03 1009.66 1009.14 1008.12 1007.04 1007.22 1007.25 1007.08 1006.77
1018.57 1018.20 1017.77 1017.22 1016.91 1016.38 1015.75 1015.23 1014.68 1014.23 1013.61 1013.43 1013.29 1013.00 1011.96 1010.12 1008.50 1007.61 1007.11 1006.82 1006.83 1006.81 1006.93 1007.24 1007.12 1007.33 1008.24 1008.08 1008.06 1008.17 1008.29 1008.59 1009.04 1009.47 1009.83 1010.67 1011.55 1011.89 1010.95 1009.31 1007.91 1006.16 1005.41 1005.67 1006.00 1005.79 1005.57
1018.49 1018.15 1017.82 1017.40 1016.98 1016.64 1016.10 1015.61 1015.22 1014.39 1013.92 1013.81 1013.55 1013.28 1012.42 1010.79 1008.74 1007.80 1007.20 1006.92 1007.05 1007.30 1007.36 1007.67 1008.09 1008.41 1008.44 1008.38 1008.42 1008.31 1008.49 1008.66 1008.48 1009.04 1009.60 1010.22 1010.92 1011.05 1010.58 1009.16 1006.95 1005.18 1004.82 1004.89 1005.34 1005.20 1004.86
1018.36 1017.93 1017.76 1017.39 1017.06 1016.72 1016.23 1015.71 1015.26 1015.08 1014.51 1013.98 1013.71 1013.53 1012.90 1011.75 1009.34 1008.13 1007.26 1007.02 1007.08 1007.26 1007.85 1008.27 1008.78 1008.84 1008.84 1008.89 1008.73 1008.39 1008.02 1007.91 1008.22 1008.77 1009.23 1009.75 1010.26 1010.76 1010.07 1009.04 1006.94 1004.77 1004.26 1004.28 1004.91 1004.79 1004.28
1018.22 1017.89 1017.65 1017.23 1016.95 1016.69 1016.34 1015.90 1015.31 1014.84 1014.56 1014.26 1013.84 1013.82 1013.37 1012.19 1009.87 1008.98 1007.89 1007.34 1007.28 1007.54 1008.03 1008.61 1009.08 1009.28 1009.32 1009.22 1008.99 1008.48 1007.94 1007.57 1007.63 1007.74 1008.51 1009.09 1009.42 1009.40 1009.09 1008.43 1006.48 1004.36 1003.98 1004.32 1004.81 1004.67 1003.98
1017.94 1017.71 1017.48 1017.03 1016.80 1016.50 1016.04 1015.76 1015.36 1014.94 1014.55 1014.44 1014.06 1013.93 1014.17 1012.99 1010.99 1009.57 1008.47 1007.82 1007.58 1007.82 1008.08 1008.99 1009.47 1009.67 1009.74 1009.56 1009.34 1008.50 1008.26 1007.83 1007.45 1006.73 1006.86 1007.49 1007.95 1008.09 1008.09 1007.36 1005.66 1003.90 1003.61 1004.21 1003.98 1003.80 1004.05
1017.61 1017.22 1017.24 1016.72 1016.64 1016.24 1015.87 1015.48 1015.15 1014.93 1014.62 1014.33 1014.24 1013.92 1014.07 1013.84 1011.71 1010.34 1009.21 1008.68 1008.28 1008.14 1008.28 1008.61 1009.22 1009.30 1009.41 1009.45 1009.20 1008.98 1008.70 1008.16 1007.37 1006.64 1005.90 1006.12 1005.83 1006.04 1006.12 1004.85 1003.58 1003.23 1003.32 1003.55 1003.81 1004.26 1004.40
Thickness
5548 5545 5541 5538 5535 5533 5530 5525 5520 5516 5513 5511 5511 5511 5510 5513 5515 5520 5526 5530 5537 5541 5545 5546 5550 5551 5554 5562 5579 5597 5602 5602 5607 5608 5612 5618 5618 5620 5619 5630 5639 5639 5645 5661 5666 5669 5672
5544 5541 5536 5533 5528 5525 5523 5518 5515 5509 5504 5502 5501 5500 5499 5499 5502 5506 5513 5520 5526 5534 5540 5540 5543 5544 5549 5560 5588 5591 5595 5597 5601 5603 5605 5612 5615 5621 5621 5625 5630 5639 5642 5648 5654 5661 5662
5539 5534 5531 5523 5520 5516 5510 5504 5499 5493 5488 5483 5481 5481 5482 5483 5485 5490 5499 5508 5516 5526 5534 5535 5535 5537 5548 5563 5580 5584 5586 5591 5598 5601 5599 5606 5610 5609 5618 5618 5629 5629 5621 5632 5639 5648 5650
5533 5527 5523 5519 5511 5504 5498 5489 5482 5474 5468 5460 5453 5447 5443 5447 5458 5469 5479 5492 5506 5514 5524 5530 5529 5533 5546 5568 5571 5573 5581 5586 5592 5597 5597 5599 5602 5599 5602 5608 5613 5609 5611 5606 5642 5648 5651
5529 5522 5515 5510 5501 5490 5483 5472 5463 5453 5442 5430 5418 5414 5414 5416 5421 5439 5457 5473 5490 5504 5514 5519 5520 5529 5543 5558 5563 5571 5576 5580 5584 5587 5588 5588 5591 5588 5590 5590 5590 5603 5595 5610 5625 5647 5648
5524 5517 5509 5500 5490 5481 5468 5455 5443 5427 5413 5404 5398 5396 5396 5399 5403 5412 5430 5455 5479 5495 5507 5508 5517 5520 5544 5557 5565 5568 5571 5579 5576 5574 5569 5570 5572 5575 5579 5581 5583 5592 5599 5604 5613 5632 5637
5516 5508 5499 5489 5480 5471 5456 5440 5423 5406 5396 5392 5386 5384 5387 5388 5392 5400 5413 5435 5464 5483 5502 5514 5525 5541 5556 5561 5560 5561 5565 5568 5571 5568 5564 5567 5565 5569 5579 5585 5591 5599 5600 5603 5611 5628 5622
5508 5501 5494 5484 5470 5458 5442 5423 5406 5392 5386 5382 5380 5382 5386 5387 5390 5393 5401 5420 5443 5459 5497 5509 5522 5534 5543 5550 5549 5552 5563 5558 5559 5556 5563 5555 5560 5579 5586 5591 5591 5593 5589 5589 5602 5612 5609
5502 5497 5488 5477 5462 5447 5429 5410 5394 5383 5376 5376 5378 5384 5388 5390 5394 5396 5401 5420 5435 5446 5476 5502 5518 5527 5533 5543 5547 5547 5555 5557 5553 5550 5553 5555 5567 5576 5578 5580 5578 5578 5578 5580 5584 5594 5601
5498 5490 5481 5469 5455 5438 5420 5399 5384 5375 5372 5374 5380 5385 5389 5394 5399 5403 5413 5429 5437 5443 5470 5501 5513 5523 5528 5539 5539 5547 5552 5551 5548 5545 5547 5549 5565 5567 5569 5571 5576 5569 5586 5585 5583 5578 5571
5497 5487 5474 5462 5447 5430 5410 5392 5380 5373 5369 5372 5381 5387 5392 5392 5397 5402 5417 5425 5427 5435 5502 5500 5509 5527 5527 5534 5540 5536 5546 5548 5548 5549 5548 5552 5559 5559 5559 5569 5575 5570 5576 5573 5571 5565 5565
5492 5483 5471 5458 5443 5426 5405 5390 5381 5377 5375 5379 5385 5390 5398 5403 5405 5409 5413 5420 5428 5432 5496 5495 5502 5516 5519 5528 5537 5535 5538 5545 5550 5547 5550 5554 5562 5563 5564 5567 5567 5566 5567 5564 5560 5556 5547
5487 5479 5469 5457 5441 5423 5404 5393 5388 5388 5388 5389 5391 5397 5403 5409 5411 5413 5419 5428 5428 5450 5480 5491 5507 5516 5522 5526 5528 5529 5531 5531 5536 5522 5530 5544 5552 5559 5561 5556 5560 5557 5552 5530 5533 5533 5534
5485 5477 5467 5456 5441 5422 5405 5397 5395 5395 5395 5393 5394 5401 5408 5411 5412 5415 5421 5433 5445 5480 5488 5507 5512 5511 5517 5524 5523 5526 5526 5527 5537 5541 5542 5533 5547 5555 5553 5555 5553 5552 5550 5528 5541 5545 5561
5481 5474 5466 5456 5441 5423 5410 5405 5400 5399 5399 5401 5402 5406 5408 5412 5414 5421 5428 5454 5477 5500 5507 5509 5505 5505 5505 5521 5527 5525 5525 5529 5538 5542 5541 5540 5547 5563 5556 5557 5555 5546 5532 5544 5534 5546 5517
5481 5474 5467 5455 5442 5427 5415 5411 5406 5404 5404 5407 5406 5406 5410 5414 5419 5430 5437 5463 5470 5510 5513 5513 5512 5522 5513 5521 5528 5530 5529 5541 5542 5547 5550 5549 5544 5552 5553 5553 5550 5544 5545 5520 5514 5485 5528
5478 5473 5467 5456 5444 5431 5420 5416 5413 5411 5409 5409 5402 5409 5407 5416 5427 5441 5456 5461 5493 5511 5518 5523 5521 5526 5530 5524 5532 5530 5532 5548 5547 5548 5548 5546 5543 5530 5531 5535 5539 5534 5530 5532 5530 5529 5510
5475 5474 5468 5458 5447 5435 5427 5422 5418 5417 5417 5417 5408 5411 5415 5428 5435 5443 5462 5468 5493 5510 5523 5531 5532 5530 5528 5528 5530 5531 5539 5544 5551 5551 5544 5543 5539 5512 5526 5546 5545 5544 5537 5530 5497 5511 5514
5474 5473 5468 5461 5450 5439 5433 5431 5425 5425 5427 5425 5424 5417 5430 5438 5451 5456 5463 5485 5498 5516 5523 5528 5531 5536 5533 5529 5526 5540 5543 5539 5547 5547 5542 5540 5523 5501 5531 5539 5543 5538 5539 5538 5529 5524 5527
5473 5472 5470 5461 5453 5445 5439 5436 5434 5432 5439 5440 5443 5443 5450 5460 5472 5469 5478 5486 5503 5516 5521 5529 5529 5536 5532 5533 5543 5538 5532 5534 5540 5543 5541 5542 5535 5512 5512 5531 5529 5512 5529 5535 5526 5515 5528
5472 5471 5469 5464 5456 5448 5444 5443 5445 5443 5447 5452 5449 5458 5457 5471 5483 5493 5495 5492 5509 5513 5519 5527 5526 5534 5535 5532 5533 5536 5535 5529 5532 5534 5536 5534 5513 5509 5524 5534 5532 5531 5536 5536 5519 5523 5519
5471 5468 5468 5463 5460 5453 5447 5448 5450 5453 5458 5460 5455 5456 5462 5492 5502 5502 5497 5488 5511 5517 5523 5524 5525 5528 5533 5533 5533 5536 5538 5536 5534 5530 5527 5528 5507 5508 5517 5541 5541 5536 5545 5548 5543 5536 5535
5470 5467 5464 5460 5457 5454 5451 5450 5452 5458 5460 5463 5458 5461 5465 5496 5504 5511 5513 5516 5517 5520 5517 5523 5525 5526 5525 5524 5528 5533 5533 5535 5537 5532 5526 5523 5507 5510 5504 5544 5540 5548 5556 5554 5548 5545 5542
5468 5465 5462 5460 5455 5453 5453 5450 5452 5456 5461 5460 5459 5460 5469 5498 5508 5513 5516 5518 5517 5518 5516 5516 5521 5522 5517 5524 5528 5530 5532 5533 5531 5529 5530 5523 5511 5512 5511 5530 5548 5564 5572 5562 5555 5556 5553
5465 5463 5460 5457 5455 5451 5451 5450 5448 5455 5461 5460 5461 5463 5470 5486 5511 5515 5518 5518 5516 5514 5514 5513 5512 5512 5517 5521 5523 5528 5528 5530 5533 5529 5528 5527 5523 5522 5523 5537 5554 5571 5573 5567 5556 5555 5562
5462 5461 5457 5455 5452 5449 5449 5449 5450 5447 5453 5458 5461 5460 5465 5474 5507 5511 5517 5517 5512 5512 5509 5508 5506 5507 5513 5514 5521 5525 5531 5537 5532 5527 5528 5528 5525 5517 5520 5530 5541 5572 5574 5573 5560 5558 5567
5459 5455 5454 5453 5451 5447 5444 5444 5446 5447 5446 5450 5455 5455 5458 5471 5494 5498 5508 5509 5511 5509 5504 5505 5500 5503 5508 5510 5517 5519 5531 5543 5537 5539 5530 5526 5524 5527 5529 5531 5546 5574 5575 5570 5559 5565 5570
5456 5451 5450 5450 5447 5445 5443 5440 5439 5440 5441 5440 5445 5447 5446 5457 5474 5491 5502 5507 5508 5507 5508 5498 5498 5496 5497 5506 5511 5527 5523 5531 5535 5550 5544 5537 5531 5530 5529 5533 5539 5577 5578 5567 5571 5572 5570
5453 5451 5444 5447 5442 5440 5437 5436 5433 5431 5432 5431 5434 5440 5442 5443 5467 5479 5489 5494 5500 5504 5505 5506 5501 5505 5505 5505 5512 5515 5521 5527 5537 5540 5556 5544 5556 5552 5550 5558 5580 5585 5581 5578 5572 5567 5566